ATLAS 5 CENTAUR DEB, 44679

Orbit data source: Space-Track

ATLAS 5 CENTAUR DEB, 44679 is space debris in HEO originally from a launch on Wed, 17 Oct 2018 UTC launched from the Air Force Eastern Test Range (AFETR). Debris objects in space refer to the collection of defunct objects orbiting the Earth. Examples of debris include non-operational satellites, rocket bodies, and fragments generated from explosions, collisions, or faulty payload assembly.

Loading next visibility...
Identifier
44679, 2018-079AR
Orbit
HEO
Country
Flag of USUS
Related business
Flag of USUnited Launch Alliance/Lockheed Martin (US)
Manufacturer
ULA Decatur
Mission
Spacecraft
Bus & Motor
Unknown
Mass
Unknown
Launch date (UTC)
2018-10-17 (7 years ago)
Launch vehicle
Unknown
Launch site
Air Force Eastern Test Range (AFETR)
Object type
Payload
Rocket body
Debris
Shape & HBR
Unknown
Radar Cross Section
RCS unknown

Expand to show TLE details & history
Last TLE update: 1 day ago

TLE from 1 day ago
0 ATLAS 5 CENTAUR DEB
1 44679U 18079AR  25260.01002991 -.00000141  00000-0  00000-0 0  9999
2 44679  13.1340  61.6187 4688446 259.6535  46.1754  1.79401761 41770
Epoch: 2025-09-17T00:14Z
TLE epoch observation values (Epoch: 2025-09-17T00:14:26.584Z)
Latitude
-0.00005°
Longitude
61.886°
Altitude
17,972.534 km
Speed
4.337 km/s
True Right ascension
04h 06m 45s
True Declination
0° 00' 00"
Sunlit
Object was in daylight at epoch
Visualization orbit readout
Latitude
Unknown
Longitude
Unknown
Altitude
Unknown
Speed
Unknown
Apparent Right ascension
Unknown
Apparent Declination
Unknown
Sunlit
N/A
Visualization observer readout
Local Sidereal Time
02:24:52
Azimuth
Unknown
Elevation
Unknown
Doppler factor
Unknown
Orbital elements
Apogee altitude
35,648.513 km
Perigee altitude
8,819.306 km
Semi-major axis
28,612.047 km
Eccentricity
0.46884
Inclination
13.134°
RAAN
61.6187°
Arg. of periapsis
259.6535°
True anomaly
100.43729°
Mean anomaly
46.1754°
Eccentric anomaly
71.67613°
Mean motion
0.44846 °/min
Orbital period
802.75 mins
BSTAR
0
Loading maneuver chart data...
Computing Atmospheric mass density...

Documentation

Showing up to 5 results
|